Time,TemperatureF,DewpointF,PressureIn,WindDirection,WindDirectionDegrees,WindSpeedMPH,WindSpeedGustMPH,Humidity,HourlyPrecipIn,Conditions,Clouds,dailyrainin,SoftwareType,DateUTC
2013-04-27 00:01:00,53.8,40.6,30.09,North,-999,0.0,0.0,61,0.00,,,-99.99,FreeWX-Wi 1.01,2013-04-27 07:01:00,
2013-04-27 00:06:00,53.8,40.6,30.09,North,-999,0.0,0.0,61,0.00,,,-99.99,FreeWX-Wi 1.01,2013-04-27 07:06:00,
2013-04-27 00:11:00,53.8,41.0,30.09,North,-999,0.0,0.0,62,0.00,,,-99.99,FreeWX-Wi 1.01,2013-04-27 07:11:00,
2013-04-27 00:16:00,53.8,41.5,30.09,North,-999,0.0,2.2,63,0.00,,,-99.99,FreeWX-Wi 1.01,2013-04-27 07:16:00,
2013-04-27 00:21:00,53.8,41.5,30.09,North,-999,0.0,0.0,63,0.00,,,-99.99,FreeWX-Wi 1.01,2013-04-27 07:21:00,
2013-04-27 00:26:00,54.0,41.7,30.09,North,-999,0.0,0.0,63,0.00,,,-99.99,FreeWX-Wi 1.01,2013-04-27 07:26:00,
2013-04-27 00:31:00,54.1,41.4,30.09,North,-999,0.0,0.0,62,0.00,,,-99.99,FreeWX-Wi 1.01,2013-04-27 07:31:00,
2013-04-27 00:36:00,54.1,41.4,30.09,North,-999,0.0,0.0,62,0.00,,,-99.99,FreeWX-Wi 1.01,2013-04-27 07:36:00,
2013-04-27 00:41:00,54.3,41.5,30.09,North,-999,0.0,0.0,62,0.00,,,-99.99,FreeWX-Wi 1.01,2013-04-27 07:41:00,
2013-04-27 00:46:00,54.1,41.0,30.09,North,-999,0.0,0.0,61,0.00,,,-99.99,FreeWX-Wi 1.01,2013-04-27 07:46:00,
2013-04-27 00:51:00,54.1,41.4,30.09,North,-999,0.0,0.0,62,0.00,,,-99.99,FreeWX-Wi 1.01,2013-04-27 07:51:00,
2013-04-27 00:56:00,54.1,41.4,30.09,North,-999,0.0,0.0,62,0.00,,,-99.99,FreeWX-Wi 1.01,2013-04-27 07:56:00,
2013-04-27 01:01:00,54.1,41.4,30.09,North,-999,0.0,0.0,62,0.00,,,-99.99,FreeWX-Wi 1.01,2013-04-27 08:01:00,
2013-04-27 01:06:00,54.0,41.7,30.09,North,-999,0.0,0.0,63,0.00,,,-99.99,FreeWX-Wi 1.01,2013-04-27 08:06:00,
2013-04-27 01:11:00,54.0,41.7,30.09,North,-999,0.0,0.0,63,0.00,,,-99.99,FreeWX-Wi 1.01,2013-04-27 08:11:00,
2013-04-27 01:16:00,54.0,41.2,30.09,North,-999,0.0,2.7,62,0.00,,,-99.99,FreeWX-Wi 1.01,2013-04-27 08:16:00,
2013-04-27 01:21:00,54.0,40.8,30.09,North,-999,0.0,0.0,61,0.00,,,-99.99,FreeWX-Wi 1.01,2013-04-27 08:21:00,
2013-04-27 01:26:00,53.8,39.7,30.09,North,-999,0.0,0.0,59,0.00,,,-99.99,FreeWX-Wi 1.01,2013-04-27 08:26:00,
2013-04-27 01:31:00,54.0,39.6,30.09,North,-999,0.0,2.2,58,0.00,,,-99.99,FreeWX-Wi 1.01,2013-04-27 08:31:00,
2013-04-27 01:36:00,54.1,39.2,30.09,North,-999,0.0,2.2,57,0.00,,,-99.99,FreeWX-Wi 1.01,2013-04-27 08:36:00,
2013-04-27 01:41:00,54.3,37.6,30.09,North,-999,0.0,4.9,53,0.00,,,-99.99,FreeWX-Wi 1.01,2013-04-27 08:41:00,
2013-04-27 01:46:00,54.7,36.0,30.09,North,-999,0.0,5.4,49,0.00,,,-99.99,FreeWX-Wi 1.01,2013-04-27 08:46:00,
2013-04-27 01:51:00,55.0,35.8,30.09,North,-999,0.0,3.1,48,0.00,,,-99.99,FreeWX-Wi 1.01,2013-04-27 08:51:00,
2013-04-27 01:56:00,55.0,35.2,30.09,North,-999,0.0,0.0,47,0.00,,,-99.99,FreeWX-Wi 1.01,2013-04-27 08:56:00,
2013-04-27 02:01:00,54.7,35.4,30.09,North,-999,0.0,2.2,48,0.00,,,-99.99,FreeWX-Wi 1.01,2013-04-27 09:01:00,
2013-04-27 02:06:00,54.7,34.3,30.09,North,-999,0.0,3.6,46,0.00,,,-99.99,FreeWX-Wi 1.01,2013-04-27 09:06:00,
2013-04-27 02:11:00,54.9,34.5,30.09,North,-999,0.0,2.2,46,0.00,,,-99.99,FreeWX-Wi 1.01,2013-04-27 09:11:00,
2013-04-27 02:16:00,54.9,34.0,30.09,North,-999,0.0,3.1,45,0.00,,,-99.99,FreeWX-Wi 1.01,2013-04-27 09:16:00,
2013-04-27 02:21:00,55.0,33.4,30.09,North,-999,0.0,3.1,44,0.00,,,-99.99,FreeWX-Wi 1.01,2013-04-27 09:21:00,
2013-04-27 02:26:00,54.9,33.4,30.09,North,-999,0.0,2.2,44,0.00,,,-99.99,FreeWX-Wi 1.01,2013-04-27 09:26:00,
2013-04-27 02:31:00,54.9,33.4,30.09,North,-999,0.0,2.7,44,0.00,,,-99.99,FreeWX-Wi 1.01,2013-04-27 09:31:00,
2013-04-27 02:36:00,54.9,32.7,30.09,North,-999,0.0,3.1,43,0.00,,,-99.99,FreeWX-Wi 1.01,2013-04-27 09:36:00,
2013-04-27 02:41:00,55.0,32.4,30.09,North,-999,0.0,2.7,42,0.00,,,-99.99,FreeWX-Wi 1.01,2013-04-27 09:41:00,
2013-04-27 02:46:00,55.0,32.4,30.09,North,-999,0.0,0.0,42,0.00,,,-99.99,FreeWX-Wi 1.01,2013-04-27 09:46:00,
2013-04-27 02:51:00,55.0,31.8,30.09,North,-999,0.0,3.1,41,0.00,,,-99.99,FreeWX-Wi 1.01,2013-04-27 09:51:00,
2013-04-27 02:56:00,55.0,31.8,30.09,North,-999,0.0,2.2,41,0.00,,,-99.99,FreeWX-Wi 1.01,2013-04-27 09:56:00,
2013-04-27 03:01:00,54.7,32.0,30.09,North,-999,0.0,0.0,42,0.00,,,-99.99,FreeWX-Wi 1.01,2013-04-27 10:01:00,
2013-04-27 03:06:00,54.5,32.5,30.09,North,-999,0.0,2.2,43,0.00,,,-99.99,FreeWX-Wi 1.01,2013-04-27 10:06:00,
2013-04-27 03:11:00,54.3,32.4,30.09,North,-999,0.0,0.0,43,0.00,,,-99.99,FreeWX-Wi 1.01,2013-04-27 10:11:00,
2013-04-27 03:21:00,54.5,31.8,30.09,North,-999,0.0,2.7,42,0.00,,,-99.99,FreeWX-Wi 1.01,2013-04-27 10:21:00,
2013-04-27 03:26:00,54.3,32.9,30.09,North,-999,0.0,2.2,44,0.00,,,-99.99,FreeWX-Wi 1.01,2013-04-27 10:26:00,
2013-04-27 03:31:00,54.1,33.3,30.09,North,-999,0.0,2.2,45,0.00,,,-99.99,FreeWX-Wi 1.01,2013-04-27 10:31:00,
2013-04-27 03:36:00,53.8,32.9,30.06,North,-999,0.0,0.0,45,0.00,,,-99.99,FreeWX-Wi 1.01,2013-04-27 10:36:00,
2013-04-27 03:41:00,53.6,32.7,30.06,North,-999,0.0,0.0,45,0.00,,,-99.99,FreeWX-Wi 1.01,2013-04-27 10:41:00,
2013-04-27 03:46:00,53.6,32.7,30.06,North,-999,0.0,0.0,45,0.00,,,-99.99,FreeWX-Wi 1.01,2013-04-27 10:46:00,
2013-04-27 03:51:00,53.6,32.2,30.06,North,-999,0.0,3.1,44,0.00,,,-99.99,FreeWX-Wi 1.01,2013-04-27 10:51:00,
2013-04-27 03:56:00,53.6,32.7,30.06,North,-999,0.0,2.2,45,0.00,,,-99.99,FreeWX-Wi 1.01,2013-04-27 10:56:00,
2013-04-27 04:01:00,53.8,31.8,30.06,North,-999,0.0,0.0,43,0.00,,,-99.99,FreeWX-Wi 1.01,2013-04-27 11:01:00,
2013-04-27 04:06:00,54.0,31.5,30.06,North,-999,0.0,3.1,42,0.00,,,-99.99,FreeWX-Wi 1.01,2013-04-27 11:06:00,
2013-04-27 04:11:00,53.8,32.4,30.06,North,-999,0.0,0.0,44,0.00,,,-99.99,FreeWX-Wi 1.01,2013-04-27 11:11:00,
2013-04-27 04:16:00,53.8,32.4,30.06,North,-999,0.0,0.0,44,0.00,,,-99.99,FreeWX-Wi 1.01,2013-04-27 11:16:00,
2013-04-27 04:21:00,53.6,32.2,30.06,North,-999,0.0,0.0,44,0.00,,,-99.99,FreeWX-Wi 1.01,2013-04-27 11:21:00,
2013-04-27 04:26:00,53.8,32.4,30.06,North,-999,0.0,4.9,44,0.00,,,-99.99,FreeWX-Wi 1.01,2013-04-27 11:26:00,
2013-04-27 04:31:00,54.0,32.0,30.06,North,-999,0.0,3.1,43,0.00,,,-99.99,FreeWX-Wi 1.01,2013-04-27 11:31:00,
2013-04-27 04:36:00,54.0,32.0,30.06,North,-999,0.0,3.6,43,0.00,,,-99.99,FreeWX-Wi 1.01,2013-04-27 11:36:00,
2013-04-27 04:41:00,54.3,31.1,30.06,North,-999,0.0,4.9,41,0.00,,,-99.99,FreeWX-Wi 1.01,2013-04-27 11:41:00,
2013-04-27 04:46:00,54.5,30.7,30.06,North,-999,0.0,3.1,40,0.00,,,-99.99,FreeWX-Wi 1.01,2013-04-27 11:46:00,
2013-04-27 04:51:00,54.7,30.9,30.06,North,-999,0.0,3.6,40,0.00,,,-99.99,FreeWX-Wi 1.01,2013-04-27 11:51:00,
2013-04-27 04:56:00,54.7,30.9,30.06,SSW,213,1.0,3.6,40,0.00,,,-99.99,FreeWX-Wi 1.01,2013-04-27 11:56:00,
2013-04-27 05:01:00,54.7,30.9,30.06,SSW,210,1.0,3.1,40,0.00,,,-99.99,FreeWX-Wi 1.01,2013-04-27 12:01:00,
2013-04-27 05:06:00,54.7,30.9,30.06,SSW,208,1.0,4.0,40,0.00,,,-99.99,FreeWX-Wi 1.01,2013-04-27 12:06:00,
2013-04-27 05:11:00,54.7,30.9,30.06,SSW,206,1.0,3.1,40,0.00,,,-99.99,FreeWX-Wi 1.01,2013-04-27 12:11:00,
2013-04-27 05:16:00,54.7,30.9,30.06,SSW,205,1.0,3.1,40,0.00,,,-99.99,FreeWX-Wi 1.01,2013-04-27 12:16:00,
2013-04-27 05:21:00,54.7,30.9,30.06,SSW,202,1.0,3.1,40,0.00,,,-99.99,FreeWX-Wi 1.01,2013-04-27 12:21:00,
2013-04-27 05:26:00,54.5,31.3,30.06,SSW,200,1.0,3.1,41,0.00,,,-99.99,FreeWX-Wi 1.01,2013-04-27 12:26:00,
2013-04-27 05:31:00,54.5,31.3,30.06,SSW,204,1.0,4.0,41,0.00,,,-99.99,FreeWX-Wi 1.01,2013-04-27 12:31:00,
2013-04-27 05:36:00,54.5,30.7,30.06,SSW,205,1.0,3.6,40,0.00,,,-99.99,FreeWX-Wi 1.01,2013-04-27 12:36:00,
2013-04-27 05:41:00,54.7,30.9,30.06,SSW,206,1.0,5.4,40,0.00,,,-99.99,FreeWX-Wi 1.01,2013-04-27 12:41:00,
2013-04-27 05:46:00,54.5,30.7,30.06,SSW,203,1.0,3.1,40,0.00,,,-99.99,FreeWX-Wi 1.01,2013-04-27 12:46:00,
2013-04-27 05:51:00,54.5,30.7,30.06,SSW,202,1.0,8.1,40,0.00,,,-99.99,FreeWX-Wi 1.01,2013-04-27 12:51:00,
2013-04-27 05:56:00,54.5,30.7,30.06,SSW,203,1.0,4.0,40,0.00,,,-99.99,FreeWX-Wi 1.01,2013-04-27 12:56:00,
2013-04-27 06:01:00,54.5,30.7,30.06,SSW,206,1.0,3.6,40,0.00,,,-99.99,FreeWX-Wi 1.01,2013-04-27 13:01:00,
2013-04-27 06:06:00,54.3,31.1,30.06,SSW,207,2.0,5.4,41,0.00,,,-99.99,FreeWX-Wi 1.01,2013-04-27 13:06:00,
2013-04-27 06:11:00,54.3,31.1,30.06,SSW,207,2.0,4.0,41,0.00,,,-99.99,FreeWX-Wi 1.01,2013-04-27 13:11:00,
2013-04-27 06:16:00,54.1,30.9,30.06,SSW,206,2.0,5.4,41,0.00,,,-99.99,FreeWX-Wi 1.01,2013-04-27 13:16:00,
2013-04-27 06:21:00,54.3,31.1,30.06,SSW,207,2.0,5.4,41,0.00,,,-99.99,FreeWX-Wi 1.01,2013-04-27 13:21:00,
2013-04-27 06:26:00,54.1,31.6,30.06,SSW,205,2.0,5.4,42,0.00,,,-99.99,FreeWX-Wi 1.01,2013-04-27 13:26:00,
2013-04-27 06:31:00,54.1,30.9,30.06,SSW,206,2.0,6.3,41,0.00,,,-99.99,FreeWX-Wi 1.01,2013-04-27 13:31:00,
2013-04-27 06:36:00,54.1,30.9,30.06,SSW,206,2.0,4.0,41,0.00,,,-99.99,FreeWX-Wi 1.01,2013-04-27 13:36:00,
2013-04-27 06:41:00,54.1,30.9,30.06,SSW,202,2.0,5.8,41,0.00,,,-99.99,FreeWX-Wi 1.01,2013-04-27 13:41:00,
2013-04-27 06:51:00,54.3,31.1,30.06,SSW,201,3.0,5.8,41,0.00,,,-99.99,FreeWX-Wi 1.01,2013-04-27 13:51:00,
2013-04-27 06:56:00,54.3,31.1,30.06,SSW,201,2.0,4.0,41,0.00,,,-99.99,FreeWX-Wi 1.01,2013-04-27 13:56:00,
2013-04-27 07:01:00,54.1,31.6,30.06,SSW,204,2.0,4.0,42,0.00,,,-99.99,FreeWX-Wi 1.01,2013-04-27 14:01:00,
2013-04-27 07:06:00,54.1,31.6,30.06,SSW,202,2.0,7.6,42,0.00,,,-99.99,FreeWX-Wi 1.01,2013-04-27 14:06:00,
2013-04-27 07:11:00,54.1,31.6,30.06,SSW,202,2.0,5.4,42,0.00,,,-99.99,FreeWX-Wi 1.01,2013-04-27 14:11:00,
2013-04-27 07:16:00,54.1,31.6,30.06,SSW,205,2.0,5.4,42,0.00,,,-99.99,FreeWX-Wi 1.01,2013-04-27 14:16:00,
2013-04-27 07:21:00,54.1,31.6,30.06,SSW,207,2.0,6.3,42,0.00,,,-99.99,FreeWX-Wi 1.01,2013-04-27 14:21:00,
2013-04-27 07:26:00,54.1,32.2,30.06,SSW,204,2.0,4.9,43,0.00,,,-99.99,FreeWX-Wi 1.01,2013-04-27 14:26:00,
2013-04-27 07:31:00,54.1,32.2,30.06,SSW,205,2.0,5.4,43,0.00,,,-99.99,FreeWX-Wi 1.01,2013-04-27 14:31:00,
2013-04-27 07:36:00,54.1,32.2,30.06,SSW,203,2.0,5.4,43,0.00,,,-99.99,FreeWX-Wi 1.01,2013-04-27 14:36:00,
2013-04-27 07:41:00,54.1,32.2,30.06,SSW,202,2.0,4.0,43,0.00,,,-99.99,FreeWX-Wi 1.01,2013-04-27 14:41:00,
2013-04-27 07:47:00,54.3,32.4,30.06,SSW,200,2.0,5.4,43,0.00,,,-99.99,FreeWX-Wi 1.01,2013-04-27 14:47:00,
2013-04-27 07:52:00,54.3,32.4,30.09,SSW,200,2.0,5.4,43,0.00,,,-99.99,FreeWX-Wi 1.01,2013-04-27 14:52:00,
2013-04-27 07:57:00,54.3,32.4,30.09,SSW,197,3.0,6.3,43,0.00,,,-99.99,FreeWX-Wi 1.01,2013-04-27 14:57:00,
2013-04-27 08:02:00,54.3,32.4,30.09,SSW,197,3.0,6.3,43,0.00,,,-99.99,FreeWX-Wi 1.01,2013-04-27 15:02:00,
2013-04-27 08:07:00,54.3,32.9,30.06,SSW,199,3.0,7.2,44,0.00,,,-99.99,FreeWX-Wi 1.01,2013-04-27 15:07:00,
2013-04-27 08:12:00,54.1,32.7,30.06,SSW,200,3.0,5.4,44,0.00,,,-99.99,FreeWX-Wi 1.01,2013-04-27 15:12:00,
2013-04-27 08:17:00,54.1,33.3,30.06,SSW,202,3.0,6.7,45,0.00,,,-99.99,FreeWX-Wi 1.01,2013-04-27 15:17:00,
2013-04-27 08:22:00,54.1,33.3,30.06,SSW,203,3.0,6.3,45,0.00,,,-99.99,FreeWX-Wi 1.01,2013-04-27 15:22:00,
2013-04-27 08:27:00,54.1,33.3,30.06,SSW,202,3.0,8.3,45,0.00,,,-99.99,FreeWX-Wi 1.01,2013-04-27 15:27:00,
2013-04-27 08:32:00,54.1,33.3,30.06,SSW,205,3.0,8.3,45,0.00,,,-99.99,FreeWX-Wi 1.01,2013-04-27 15:32:00,
2013-04-27 08:37:00,54.1,32.7,30.06,SSW,204,3.0,8.7,44,0.00,,,-99.99,FreeWX-Wi 1.01,2013-04-27 15:37:00,
2013-04-27 08:42:00,54.3,32.4,30.06,SSW,202,3.0,8.7,43,0.00,,,-99.99,FreeWX-Wi 1.01,2013-04-27 15:42:00,
2013-04-27 08:47:00,54.5,33.1,30.06,SSW,202,3.0,6.3,44,0.00,,,-99.99,FreeWX-Wi 1.01,2013-04-27 15:47:00,
2013-04-27 08:52:00,54.3,32.9,30.06,SSW,201,3.0,5.8,44,0.00,,,-99.99,FreeWX-Wi 1.01,2013-04-27 15:52:00,
2013-04-27 08:57:00,54.3,32.4,30.06,SSW,204,4.0,5.8,43,0.00,,,-99.99,FreeWX-Wi 1.01,2013-04-27 15:57:00,
2013-04-27 09:02:00,54.3,32.4,30.06,SSW,201,3.0,8.1,43,0.00,,,-99.99,FreeWX-Wi 1.01,2013-04-27 16:02:00,
2013-04-27 09:07:00,54.3,32.9,30.09,SSW,204,3.0,5.8,44,0.00,,,-99.99,FreeWX-Wi 1.01,2013-04-27 16:07:00,
2013-04-27 09:12:00,54.3,33.4,30.09,SSW,203,3.0,6.3,45,0.00,,,-99.99,FreeWX-Wi 1.01,2013-04-27 16:12:00,
2013-04-27 09:17:00,54.1,33.3,30.09,SSW,202,3.0,6.3,45,0.00,,,-99.99,FreeWX-Wi 1.01,2013-04-27 16:17:00,
2013-04-27 09:22:00,54.1,33.3,30.09,SSW,202,3.0,5.4,45,0.00,,,-99.99,FreeWX-Wi 1.01,2013-04-27 16:22:00,
2013-04-27 09:27:00,54.0,33.1,30.09,SSW,202,3.0,5.8,45,0.00,,,-99.99,FreeWX-Wi 1.01,2013-04-27 16:27:00,
2013-04-27 09:32:00,54.1,33.3,30.09,SSW,201,3.0,4.0,45,0.00,,,-99.99,FreeWX-Wi 1.01,2013-04-27 16:32:00,
2013-04-27 09:37:00,54.1,33.8,30.09,SSW,200,3.0,6.7,46,0.00,,,-99.99,FreeWX-Wi 1.01,2013-04-27 16:37:00,
2013-04-27 09:42:00,54.1,33.3,30.09,SSW,199,3.0,6.3,45,0.00,,,-99.99,FreeWX-Wi 1.01,2013-04-27 16:42:00,
2013-04-27 09:47:00,54.1,33.3,30.09,SSW,198,3.0,7.6,45,0.00,,,-99.99,FreeWX-Wi 1.01,2013-04-27 16:47:00,
2013-04-27 09:52:00,54.1,33.8,30.09,SSW,198,3.0,6.3,46,0.00,,,-99.99,FreeWX-Wi 1.01,2013-04-27 16:52:00,
2013-04-27 09:57:00,54.0,33.6,30.09,SSW,199,3.0,8.7,46,0.00,,,-99.99,FreeWX-Wi 1.01,2013-04-27 16:57:00,
2013-04-27 10:02:00,54.0,33.6,30.09,SSW,197,3.0,6.7,46,0.00,,,-99.99,FreeWX-Wi 1.01,2013-04-27 17:02:00,
2013-04-27 10:07:00,53.8,33.4,30.09,SSW,199,3.0,13.2,46,0.00,,,-99.99,FreeWX-Wi 1.01,2013-04-27 17:07:00,
2013-04-27 10:12:00,53.8,33.4,30.09,SSW,201,4.0,8.7,46,0.00,,,-99.99,FreeWX-Wi 1.01,2013-04-27 17:12:00,
2013-04-27 10:17:00,53.8,33.4,30.09,SSW,200,4.0,9.6,46,0.00,,,-99.99,FreeWX-Wi 1.01,2013-04-27 17:17:00,
2013-04-27 10:22:00,53.8,33.4,30.09,SSW,202,4.0,10.1,46,0.00,,,-99.99,FreeWX-Wi 1.01,2013-04-27 17:22:00,
2013-04-27 10:27:00,53.6,33.3,30.09,SSW,202,4.0,10.5,46,0.00,,,-99.99,FreeWX-Wi 1.01,2013-04-27 17:27:00,
2013-04-27 10:32:00,53.6,33.3,30.09,SSW,201,4.0,4.5,46,0.00,,,-99.99,FreeWX-Wi 1.01,2013-04-27 17:32:00,
2013-04-27 10:37:00,53.6,32.7,30.12,SSW,200,4.0,8.7,45,0.00,,,-99.99,FreeWX-Wi 1.01,2013-04-27 17:37:00,
2013-04-27 10:42:00,53.6,33.3,30.12,SSW,203,5.0,11.0,46,0.00,,,-99.99,FreeWX-Wi 1.01,2013-04-27 17:42:00,
2013-04-27 10:47:00,53.6,33.3,30.12,SSW,199,5.0,9.6,46,0.00,,,-99.99,FreeWX-Wi 1.01,2013-04-27 17:47:00,
2013-04-27 10:52:00,53.4,33.6,30.12,SSW,200,5.0,9.2,47,0.00,,,-99.99,FreeWX-Wi 1.01,2013-04-27 17:52:00,
2013-04-27 10:57:00,53.4,33.6,30.12,SSW,201,4.0,6.3,47,0.00,,,-99.99,FreeWX-Wi 1.01,2013-04-27 17:57:00,
2013-04-27 11:02:00,53.2,34.5,30.12,SSW,205,4.0,4.0,49,0.00,,,-99.99,FreeWX-Wi 1.01,2013-04-27 18:02:00,
2013-04-27 11:07:00,52.9,36.1,30.12,SSW,206,4.0,8.7,53,0.00,,,-99.99,FreeWX-Wi 1.01,2013-04-27 18:07:00,
2013-04-27 11:12:00,52.5,36.9,30.12,SSW,210,4.0,10.5,55,0.00,,,-99.99,FreeWX-Wi 1.01,2013-04-27 18:12:00,
2013-04-27 11:17:00,52.3,36.7,30.12,SSW,213,4.0,5.4,55,0.00,,,-99.99,FreeWX-Wi 1.01,2013-04-27 18:17:00,
2013-04-27 11:22:00,52.2,37.8,30.12,SSW,212,4.0,6.3,58,0.00,,,-99.99,FreeWX-Wi 1.01,2013-04-27 18:22:00,
2013-04-27 11:27:00,52.0,38.1,30.12,SSW,212,3.0,8.1,59,0.00,,,-99.99,FreeWX-Wi 1.01,2013-04-27 18:27:00,
2013-04-27 11:32:00,52.0,38.5,30.12,SW,214,3.0,4.9,60,0.00,,,-99.99,FreeWX-Wi 1.01,2013-04-27 18:32:00,
2013-04-27 11:37:00,52.0,38.5,30.12,SSW,213,3.0,5.4,60,0.00,,,-99.99,FreeWX-Wi 1.01,2013-04-27 18:37:00,
2013-04-27 11:42:00,52.0,39.0,30.12,SSW,211,3.0,4.0,61,0.00,,,-99.99,FreeWX-Wi 1.01,2013-04-27 18:42:00,
2013-04-27 11:47:00,52.0,39.0,30.12,SSW,211,2.0,3.6,61,0.00,,,-99.99,FreeWX-Wi 1.01,2013-04-27 18:47:00,
2013-04-27 11:52:00,52.0,39.4,30.12,SSW,208,2.0,4.0,62,0.00,,,-99.99,FreeWX-Wi 1.01,2013-04-27 18:52:00,
2013-04-27 11:57:00,52.0,39.4,30.12,SSW,204,2.0,6.3,62,0.00,,,-99.99,FreeWX-Wi 1.01,2013-04-27 18:57:00,
2013-04-27 12:02:00,52.0,40.1,30.12,SSW,204,2.0,6.3,64,0.00,,,-99.99,FreeWX-Wi 1.01,2013-04-27 19:02:00,
2013-04-27 12:07:00,51.4,40.5,30.12,SSW,205,1.0,3.6,66,0.00,,,-99.99,FreeWX-Wi 1.01,2013-04-27 19:07:00,
2013-04-27 12:12:00,51.1,40.5,30.12,SSW,205,1.0,0.0,67,0.00,,,-99.99,FreeWX-Wi 1.01,2013-04-27 19:12:00,
2013-04-27 12:17:00,50.9,41.2,30.12,SSW,204,1.0,0.0,69,0.00,,,-99.99,FreeWX-Wi 1.01,2013-04-27 19:17:00,
2013-04-27 12:22:00,50.7,41.7,30.12,SSW,205,1.0,0.0,71,0.00,,,-99.99,FreeWX-Wi 1.01,2013-04-27 19:22:00,
2013-04-27 12:27:00,50.5,42.3,30.12,North,-999,0.0,0.0,73,0.00,,,-99.99,FreeWX-Wi 1.01,2013-04-27 19:27:00,
2013-04-27 12:32:00,50.5,43.0,30.12,North,-999,0.0,0.0,75,0.00,,,-99.99,FreeWX-Wi 1.01,2013-04-27 19:32:00,
2013-04-27 12:37:00,50.7,43.5,30.12,North,-999,0.0,2.7,76,0.00,,,-99.99,FreeWX-Wi 1.01,2013-04-27 19:37:00,
2013-04-27 12:42:00,50.7,43.7,30.12,North,-999,0.0,2.2,77,0.00,,,-99.99,FreeWX-Wi 1.01,2013-04-27 19:42:00,
2013-04-27 12:47:00,50.5,44.6,30.12,North,-999,0.0,2.7,80,0.00,,,-99.99,FreeWX-Wi 1.01,2013-04-27 19:47:00,
2013-04-27 12:52:00,50.4,44.8,30.12,North,-999,0.0,2.2,81,0.00,,,-99.99,FreeWX-Wi 1.01,2013-04-27 19:52:00,
2013-04-27 12:57:00,50.5,45.3,30.12,North,-999,0.0,2.7,82,0.00,,,-99.99,FreeWX-Wi 1.01,2013-04-27 19:57:00,
2013-04-27 13:02:00,50.2,45.5,30.12,North,-999,0.0,2.7,84,0.00,,,-99.99,FreeWX-Wi 1.01,2013-04-27 20:02:00,
2013-04-27 13:12:00,49.6,45.9,30.12,North,-999,0.0,2.7,87,0.00,,,-99.99,FreeWX-Wi 1.01,2013-04-27 20:12:00,
2013-04-27 13:17:00,49.6,46.2,30.12,North,-999,0.0,0.0,88,0.00,,,-99.99,FreeWX-Wi 1.01,2013-04-27 20:17:00,
2013-04-27 13:22:00,49.6,46.6,30.12,North,-999,0.0,0.0,89,0.00,,,-99.99,FreeWX-Wi 1.01,2013-04-27 20:22:00,
2013-04-27 13:27:00,49.6,46.8,30.12,North,-999,0.0,0.0,90,0.00,,,-99.99,FreeWX-Wi 1.01,2013-04-27 20:27:00,
2013-04-27 13:32:00,49.8,47.3,30.12,North,-999,0.0,0.0,91,0.04,,,-99.99,FreeWX-Wi 1.01,2013-04-27 20:32:00,
2013-04-27 13:37:00,49.8,47.7,30.12,North,-999,0.0,4.0,92,0.04,,,-99.99,FreeWX-Wi 1.01,2013-04-27 20:37:00,
2013-04-27 13:42:00,49.5,47.3,30.12,North,-999,0.0,4.0,92,0.04,,,-99.99,FreeWX-Wi 1.01,2013-04-27 20:42:00,
2013-04-27 13:47:00,49.3,47.3,30.12,North,-999,0.0,3.6,93,0.04,,,-99.99,FreeWX-Wi 1.01,2013-04-27 20:47:00,
2013-04-27 13:52:00,49.8,48.2,30.12,North,-999,0.0,2.2,94,0.04,,,-99.99,FreeWX-Wi 1.01,2013-04-27 20:52:00,
2013-04-27 13:57:00,50.2,48.6,30.12,North,-999,0.0,0.0,94,0.04,,,-99.99,FreeWX-Wi 1.01,2013-04-27 20:57:00,
2013-04-27 14:02:00,50.4,48.7,30.12,North,-999,0.0,2.7,94,0.04,,,-99.99,FreeWX-Wi 1.01,2013-04-27 21:02:00,
2013-04-27 14:07:00,50.5,48.9,30.12,North,-999,0.0,2.7,94,0.04,,,-99.99,FreeWX-Wi 1.01,2013-04-27 21:07:00,
2013-04-27 14:12:00,50.9,49.3,30.12,North,-999,0.0,2.7,94,0.04,,,-99.99,FreeWX-Wi 1.01,2013-04-27 21:12:00,
2013-04-27 14:17:00,50.7,49.1,30.12,North,-999,0.0,2.2,94,0.04,,,-99.99,FreeWX-Wi 1.01,2013-04-27 21:17:00,
2013-04-27 14:22:00,50.5,49.1,30.12,North,-999,0.0,3.1,95,0.04,,,-99.99,FreeWX-Wi 1.01,2013-04-27 21:22:00,
2013-04-27 14:27:00,50.7,49.3,30.12,North,-999,0.0,4.0,95,0.04,,,-99.99,FreeWX-Wi 1.01,2013-04-27 21:27:00,
2013-04-27 14:32:00,50.5,49.1,30.12,North,-999,0.0,4.0,95,0.00,,,-99.99,FreeWX-Wi 1.01,2013-04-27 21:32:00,
2013-04-27 14:37:00,50.7,49.3,30.12,SSW,213,1.0,2.7,95,0.00,,,-99.99,FreeWX-Wi 1.01,2013-04-27 21:37:00,
2013-04-27 14:42:00,51.1,50.0,30.12,North,-999,0.0,3.6,96,0.00,,,-99.99,FreeWX-Wi 1.01,2013-04-27 21:42:00,
2013-04-27 14:47:00,51.4,50.4,30.12,North,-999,0.0,2.7,96,0.00,,,-99.99,FreeWX-Wi 1.01,2013-04-27 21:47:00,
2013-04-27 14:52:00,51.3,50.2,30.12,SW,214,1.0,7.6,96,0.00,,,-99.99,FreeWX-Wi 1.01,2013-04-27 21:52:00,
2013-04-27 14:57:00,50.9,49.8,30.12,SW,214,1.0,5.8,96,0.00,,,-99.99,FreeWX-Wi 1.01,2013-04-27 21:57:00,
2013-04-27 15:02:00,51.1,50.0,30.12,SSW,211,2.0,5.8,96,0.00,,,-99.99,FreeWX-Wi 1.01,2013-04-27 22:02:00,
2013-04-27 15:07:00,50.9,49.8,30.12,SSW,211,2.0,8.1,96,0.00,,,-99.99,FreeWX-Wi 1.01,2013-04-27 22:07:00,
2013-04-27 15:12:00,50.5,49.1,30.12,SSW,208,2.0,8.7,95,0.00,,,-99.99,FreeWX-Wi 1.01,2013-04-27 22:12:00,
2013-04-27 15:17:00,50.9,49.5,30.12,SSW,205,2.0,5.4,95,0.00,,,-99.99,FreeWX-Wi 1.01,2013-04-27 22:17:00,
2013-04-27 15:22:00,51.3,49.8,30.12,SSW,205,3.0,8.1,95,0.00,,,-99.99,FreeWX-Wi 1.01,2013-04-27 22:22:00,
2013-04-27 15:27:00,51.6,50.0,30.12,SSW,202,3.0,8.3,94,0.00,,,-99.99,FreeWX-Wi 1.01,2013-04-27 22:27:00,
2013-04-27 15:32:00,51.8,49.5,30.12,SSW,201,4.0,8.7,92,0.00,,,-99.99,FreeWX-Wi 1.01,2013-04-27 22:32:00,
2013-04-27 15:37:00,52.2,49.3,30.09,SSW,199,4.0,9.6,90,0.00,,,-99.99,FreeWX-Wi 1.01,2013-04-27 22:37:00,
2013-04-27 15:47:00,52.5,48.7,30.09,SSW,200,4.0,7.2,87,0.00,,,-99.99,FreeWX-Wi 1.01,2013-04-27 22:47:00,
2013-04-27 15:52:00,52.5,48.2,30.09,SSW,202,4.0,6.3,85,0.00,,,-99.99,FreeWX-Wi 1.01,2013-04-27 22:52:00,
2013-04-27 16:02:00,52.9,48.2,30.09,SSW,200,4.0,11.4,84,0.00,,,-99.99,FreeWX-Wi 1.01,2013-04-27 23:02:00,
2013-04-27 16:07:00,52.9,48.2,30.09,SSW,199,4.0,7.6,84,0.00,,,-99.99,FreeWX-Wi 1.01,2013-04-27 23:07:00,
2013-04-27 16:12:00,53.1,48.4,30.09,SSW,198,4.0,5.4,84,0.00,,,-99.99,FreeWX-Wi 1.01,2013-04-27 23:12:00,
2013-04-27 16:22:00,53.1,48.4,30.09,SSW,197,4.0,4.9,84,0.00,,,-99.99,FreeWX-Wi 1.01,2013-04-27 23:22:00,
2013-04-27 16:27:00,53.2,48.6,30.09,SSW,200,4.0,4.9,84,0.00,,,-99.99,FreeWX-Wi 1.01,2013-04-27 23:27:00,
2013-04-27 16:32:00,53.2,48.6,30.09,SSW,204,4.0,5.4,84,0.00,,,-99.99,FreeWX-Wi 1.01,2013-04-27 23:32:00,
2013-04-27 16:37:00,53.2,48.2,30.09,SSW,201,4.0,5.4,83,0.00,,,-99.99,FreeWX-Wi 1.01,2013-04-27 23:37:00,
2013-04-27 16:42:00,53.2,48.2,30.09,SSW,201,3.0,3.1,83,0.00,,,-99.99,FreeWX-Wi 1.01,2013-04-27 23:42:00,
2013-04-27 16:47:00,53.2,48.6,30.09,SSW,202,3.0,4.0,84,0.00,,,-99.99,FreeWX-Wi 1.01,2013-04-27 23:47:00,
2013-04-27 16:52:00,53.2,48.6,30.09,SSW,201,3.0,7.6,84,0.00,,,-99.99,FreeWX-Wi 1.01,2013-04-27 23:52:00,
2013-04-27 16:57:00,53.4,48.7,30.09,SSW,201,3.0,4.0,84,0.00,,,-99.99,FreeWX-Wi 1.01,2013-04-27 23:57:00,
2013-04-27 17:02:00,53.4,48.7,30.09,SSW,204,3.0,4.0,84,0.00,,,-99.99,FreeWX-Wi 1.01,2013-04-28 00:02:00,
2013-04-27 17:07:00,53.6,48.6,30.09,SSW,205,2.0,5.4,83,0.00,,,-99.99,FreeWX-Wi 1.01,2013-04-28 00:07:00,
2013-04-27 17:12:00,53.8,48.7,30.09,SSW,204,2.0,6.3,83,0.00,,,-99.99,FreeWX-Wi 1.01,2013-04-28 00:12:00,
2013-04-27 17:17:00,54.0,48.9,30.09,SSW,203,2.0,4.0,83,0.00,,,-99.99,FreeWX-Wi 1.01,2013-04-28 00:17:00,
2013-04-27 17:22:00,54.0,48.6,30.09,SSW,202,2.0,8.3,82,0.00,,,-99.99,FreeWX-Wi 1.01,2013-04-28 00:22:00,
2013-04-27 17:27:00,54.3,48.9,30.09,SSW,198,2.0,4.0,82,0.00,,,-99.99,FreeWX-Wi 1.01,2013-04-28 00:27:00,
2013-04-27 17:32:00,54.5,49.1,30.09,SSW,200,2.0,4.9,82,0.00,,,-99.99,FreeWX-Wi 1.01,2013-04-28 00:32:00,
2013-04-27 17:37:00,54.5,48.7,30.09,SSW,198,2.0,5.8,81,0.00,,,-99.99,FreeWX-Wi 1.01,2013-04-28 00:37:00,
2013-04-27 17:42:00,54.5,48.7,30.09,SSW,199,2.0,3.1,81,0.00,,,-99.99,FreeWX-Wi 1.01,2013-04-28 00:42:00,
2013-04-27 17:47:00,54.5,48.4,30.09,SSW,196,2.0,6.3,80,0.00,,,-99.99,FreeWX-Wi 1.01,2013-04-28 00:47:00,
2013-04-27 17:52:00,54.5,47.5,30.09,SSW,197,2.0,8.1,77,0.00,,,-99.99,FreeWX-Wi 1.01,2013-04-28 00:52:00,
2013-04-27 17:57:00,54.5,47.5,30.09,SSW,199,2.0,6.3,77,0.00,,,-99.99,FreeWX-Wi 1.01,2013-04-28 00:57:00,
2013-04-27 18:02:00,54.5,47.8,30.09,SSW,198,3.0,8.3,78,0.00,,,-99.99,FreeWX-Wi 1.01,2013-04-28 01:02:00,
2013-04-27 18:07:00,54.5,47.1,30.09,SSW,197,3.0,4.5,76,0.00,,,-99.99,FreeWX-Wi 1.01,2013-04-28 01:07:00,
2013-04-27 18:12:00,54.5,47.5,30.09,SSW,197,2.0,4.0,77,0.00,,,-99.99,FreeWX-Wi 1.01,2013-04-28 01:12:00,
2013-04-27 18:17:00,54.5,47.1,30.09,SSW,199,3.0,7.6,76,0.00,,,-99.99,FreeWX-Wi 1.01,2013-04-28 01:17:00,
2013-04-27 18:22:00,54.5,47.1,30.09,SSW,202,3.0,5.8,76,0.00,,,-99.99,FreeWX-Wi 1.01,2013-04-28 01:22:00,
2013-04-27 18:27:00,54.5,47.1,30.09,SSW,206,3.0,7.6,76,0.00,,,-99.99,FreeWX-Wi 1.01,2013-04-28 01:27:00,
2013-04-27 18:32:00,54.5,47.1,30.09,SSW,205,3.0,10.5,76,0.00,,,-99.99,FreeWX-Wi 1.01,2013-04-28 01:32:00,
2013-04-27 18:37:00,54.5,47.1,30.06,SSW,201,3.0,5.8,76,0.00,,,-99.99,FreeWX-Wi 1.01,2013-04-28 01:37:00,
2013-04-27 18:42:00,54.5,47.1,30.06,SSW,203,3.0,10.1,76,0.00,,,-99.99,FreeWX-Wi 1.01,2013-04-28 01:42:00,
2013-04-27 18:47:00,54.5,46.8,30.06,SSW,203,3.0,8.3,75,0.00,,,-99.99,FreeWX-Wi 1.01,2013-04-28 01:47:00,
2013-04-27 18:52:00,54.5,46.8,30.09,SSW,204,3.0,4.0,75,0.00,,,-99.99,FreeWX-Wi 1.01,2013-04-28 01:52:00,
2013-04-27 18:57:00,54.5,46.8,30.09,SSW,206,3.0,5.4,75,0.00,,,-99.99,FreeWX-Wi 1.01,2013-04-28 01:57:00,
2013-04-27 19:02:00,54.3,46.9,30.09,SSW,207,3.0,5.4,76,0.00,,,-99.99,FreeWX-Wi 1.01,2013-04-28 02:02:00,
2013-04-27 19:07:00,54.3,46.9,30.09,SSW,207,3.0,8.3,76,0.00,,,-99.99,FreeWX-Wi 1.01,2013-04-28 02:07:00,
2013-04-27 19:12:00,54.1,46.8,30.09,SSW,209,3.0,11.9,76,0.00,,,-99.99,FreeWX-Wi 1.01,2013-04-28 02:12:00,
2013-04-27 19:17:00,54.0,46.2,30.09,SSW,206,4.0,12.8,75,0.00,,,-99.99,FreeWX-Wi 1.01,2013-04-28 02:17:00,
2013-04-27 19:22:00,54.0,46.2,30.09,SSW,208,3.0,4.0,75,0.00,,,-99.99,FreeWX-Wi 1.01,2013-04-28 02:22:00,
2013-04-27 19:27:00,53.8,46.0,30.09,SSW,210,3.0,6.3,75,0.00,,,-99.99,FreeWX-Wi 1.01,2013-04-28 02:27:00,
2013-04-27 19:32:00,53.8,46.0,30.09,SSW,213,3.0,5.8,75,0.00,,,-99.99,FreeWX-Wi 1.01,2013-04-28 02:32:00,
2013-04-27 19:37:00,53.6,45.9,30.09,SW,215,3.0,5.8,75,0.00,,,-99.99,FreeWX-Wi 1.01,2013-04-28 02:37:00,
2013-04-27 19:42:00,53.6,45.9,30.09,SW,215,3.0,11.0,75,0.00,,,-99.99,FreeWX-Wi 1.01,2013-04-28 02:42:00,
2013-04-27 19:47:00,53.6,46.2,30.09,SW,219,4.0,8.3,76,0.00,,,-99.99,FreeWX-Wi 1.01,2013-04-28 02:47:00,
2013-04-27 19:52:00,53.4,46.0,30.09,SW,220,4.0,12.3,76,0.00,,,-99.99,FreeWX-Wi 1.01,2013-04-28 02:52:00,
2013-04-27 19:57:00,53.4,46.4,30.09,SW,216,4.0,7.6,77,0.00,,,-99.99,FreeWX-Wi 1.01,2013-04-28 02:57:00,
2013-04-27 20:02:00,53.2,46.2,30.09,SW,217,4.0,5.8,77,0.00,,,-99.99,FreeWX-Wi 1.01,2013-04-28 03:02:00,
2013-04-27 20:07:00,53.2,46.6,30.09,SW,218,4.0,7.6,78,0.00,,,-99.99,FreeWX-Wi 1.01,2013-04-28 03:07:00,
2013-04-27 20:12:00,53.1,46.8,30.09,SW,221,4.0,8.3,79,0.00,,,-99.99,FreeWX-Wi 1.01,2013-04-28 03:12:00,
2013-04-27 20:17:00,52.9,46.6,30.09,SW,222,3.0,4.0,79,0.00,,,-99.99,FreeWX-Wi 1.01,2013-04-28 03:17:00,
2013-04-27 20:22:00,52.7,46.8,30.09,SW,223,3.0,4.9,80,0.00,,,-99.99,FreeWX-Wi 1.01,2013-04-28 03:22:00,
2013-04-27 20:27:00,52.5,46.6,30.09,SW,224,3.0,3.6,80,0.00,,,-99.99,FreeWX-Wi 1.01,2013-04-28 03:27:00,
2013-04-27 20:32:00,52.5,46.9,30.09,SW,226,3.0,3.6,81,0.00,,,-99.99,FreeWX-Wi 1.01,2013-04-28 03:32:00,
2013-04-27 20:37:00,52.3,46.9,30.09,SW,223,3.0,5.4,82,0.00,,,-99.99,FreeWX-Wi 1.01,2013-04-28 03:37:00,
2013-04-27 20:42:00,52.3,46.9,30.09,SW,221,3.0,8.7,82,0.00,,,-99.99,FreeWX-Wi 1.01,2013-04-28 03:42:00,
2013-04-27 20:47:00,52.2,46.8,30.09,SW,229,2.0,4.0,82,0.00,,,-99.99,FreeWX-Wi 1.01,2013-04-28 03:47:00,
2013-04-27 20:52:00,52.2,46.8,30.09,SW,228,2.0,4.0,82,0.00,,,-99.99,FreeWX-Wi 1.01,2013-04-28 03:52:00,
2013-04-27 20:57:00,52.2,46.8,30.09,SW,228,2.0,5.8,82,0.00,,,-99.99,FreeWX-Wi 1.01,2013-04-28 03:57:00,
2013-04-27 21:02:00,52.2,47.1,30.09,SW,225,2.0,11.0,83,0.00,,,-99.99,FreeWX-Wi 1.01,2013-04-28 04:02:00,
2013-04-27 21:07:00,52.2,47.1,30.09,SW,219,3.0,6.3,83,0.00,,,-99.99,FreeWX-Wi 1.01,2013-04-28 04:07:00,
2013-04-27 21:12:00,52.0,46.9,30.09,SW,214,3.0,8.3,83,0.00,,,-99.99,FreeWX-Wi 1.01,2013-04-28 04:12:00,
2013-04-27 21:17:00,52.0,46.9,30.09,SSW,213,3.0,6.3,83,0.00,,,-99.99,FreeWX-Wi 1.01,2013-04-28 04:17:00,
2013-04-27 21:22:00,52.0,46.9,30.09,SSW,211,3.0,3.6,83,0.00,,,-99.99,FreeWX-Wi 1.01,2013-04-28 04:22:00,
2013-04-27 21:27:00,51.8,46.8,30.09,SSW,208,3.0,7.2,83,0.00,,,-99.99,FreeWX-Wi 1.01,2013-04-28 04:27:00,
2013-04-27 21:32:00,51.8,46.8,30.09,SSW,205,3.0,6.3,83,0.00,,,-99.99,FreeWX-Wi 1.01,2013-04-28 04:32:00,
2013-04-27 21:37:00,51.8,46.8,30.09,SSW,207,3.0,7.6,83,0.00,,,-99.99,FreeWX-Wi 1.01,2013-04-28 04:37:00,
2013-04-27 21:42:00,51.8,46.8,30.09,SSW,210,3.0,6.3,83,0.00,,,-99.99,FreeWX-Wi 1.01,2013-04-28 04:42:00,
2013-04-27 21:47:00,51.8,47.1,30.09,SW,214,3.0,6.7,84,0.00,,,-99.99,FreeWX-Wi 1.01,2013-04-28 04:47:00,
2013-04-27 21:52:00,51.8,47.1,30.09,SW,218,3.0,7.6,84,0.00,,,-99.99,FreeWX-Wi 1.01,2013-04-28 04:52:00,
2013-04-27 21:57:00,51.8,47.1,30.09,SW,220,3.0,7.2,84,0.00,,,-99.99,FreeWX-Wi 1.01,2013-04-28 04:57:00,
2013-04-27 22:02:00,51.8,47.1,30.09,SW,221,3.0,5.8,84,0.00,,,-99.99,FreeWX-Wi 1.01,2013-04-28 05:02:00,
2013-04-27 22:07:00,51.6,46.9,30.09,SW,221,3.0,9.6,84,0.00,,,-99.99,FreeWX-Wi 1.01,2013-04-28 05:07:00,
2013-04-27 22:12:00,51.6,46.9,30.09,SW,221,3.0,4.9,84,0.00,,,-99.99,FreeWX-Wi 1.01,2013-04-28 05:12:00,
2013-04-27 22:17:00,51.6,46.9,30.09,SW,222,3.0,6.3,84,0.00,,,-99.99,FreeWX-Wi 1.01,2013-04-28 05:17:00,
2013-04-27 22:22:00,51.4,46.8,30.12,SW,225,3.0,7.6,84,0.00,,,-99.99,FreeWX-Wi 1.01,2013-04-28 05:22:00,
2013-04-27 22:27:00,51.4,46.8,30.12,SW,216,3.0,7.2,84,0.00,,,-99.99,FreeWX-Wi 1.01,2013-04-28 05:27:00,
2013-04-27 22:32:00,51.3,46.9,30.12,SW,218,3.0,11.0,85,0.00,,,-99.99,FreeWX-Wi 1.01,2013-04-28 05:32:00,
2013-04-27 22:37:00,51.3,46.9,30.12,SW,219,3.0,7.6,85,0.00,,,-99.99,FreeWX-Wi 1.01,2013-04-28 05:37:00,
2013-04-27 22:42:00,51.3,46.9,30.12,SW,222,3.0,5.4,85,0.00,,,-99.99,FreeWX-Wi 1.01,2013-04-28 05:42:00,
2013-04-27 22:47:00,51.3,46.9,30.12,SW,221,3.0,8.1,85,0.00,,,-99.99,FreeWX-Wi 1.01,2013-04-28 05:47:00,
2013-04-27 22:52:00,51.1,46.8,30.12,SW,225,3.0,4.9,85,0.00,,,-99.99,FreeWX-Wi 1.01,2013-04-28 05:52:00,
2013-04-27 22:57:00,51.1,47.1,30.12,SW,228,3.0,3.1,86,0.00,,,-99.99,FreeWX-Wi 1.01,2013-04-28 05:57:00,
2013-04-27 23:02:00,51.1,47.1,30.12,SW,231,3.0,5.4,86,0.00,,,-99.99,FreeWX-Wi 1.01,2013-04-28 06:02:00,
2013-04-27 23:07:00,51.1,47.1,30.12,SW,228,3.0,7.6,86,0.00,,,-99.99,FreeWX-Wi 1.01,2013-04-28 06:07:00,
2013-04-27 23:12:00,51.1,47.1,30.12,SW,226,3.0,6.3,86,0.00,,,-99.99,FreeWX-Wi 1.01,2013-04-28 06:12:00,
2013-04-27 23:17:00,50.9,46.9,30.12,SW,224,3.0,4.9,86,0.00,,,-99.99,FreeWX-Wi 1.01,2013-04-28 06:17:00,
2013-04-27 23:22:00,50.9,46.9,30.09,SW,225,3.0,4.0,86,0.00,,,-99.99,FreeWX-Wi 1.01,2013-04-28 06:22:00,
2013-04-27 23:27:00,50.9,46.9,30.09,SW,227,3.0,5.4,86,0.00,,,-99.99,FreeWX-Wi 1.01,2013-04-28 06:27:00,
2013-04-27 23:32:00,50.9,47.1,30.09,SW,229,3.0,5.8,87,0.00,,,-99.99,FreeWX-Wi 1.01,2013-04-28 06:32:00,
2013-04-27 23:37:00,50.7,46.9,30.09,SW,226,2.0,3.6,87,0.00,,,-99.99,FreeWX-Wi 1.01,2013-04-28 06:37:00,
2013-04-27 23:42:00,50.7,46.9,30.09,SW,222,2.0,5.8,87,0.00,,,-99.99,FreeWX-Wi 1.01,2013-04-28 06:42:00,
2013-04-27 23:47:00,50.7,46.9,30.09,SW,221,2.0,3.6,87,0.00,,,-99.99,FreeWX-Wi 1.01,2013-04-28 06:47:00,
2013-04-27 23:52:00,50.7,46.9,30.09,SW,218,2.0,3.1,87,0.00,,,-99.99,FreeWX-Wi 1.01,2013-04-28 06:52:00,
2013-04-27 23:57:00,50.7,46.9,30.09,SW,215,2.0,3.6,87,0.00,,,-99.99,FreeWX-Wi 1.01,2013-04-28 06:57:00,